| time (UTC) | temp F | wind direction | speed MPH | gust MPH | rain 1hr in | rain 24hr in | rain mn in | humidity % | barometer mb |
| 20260502163027 | 68 | 45 | 16.0 | 26.0 | 0.00 | 2.34 | 0.00 | 68 | 1020.4 |
| 20260502161524 | 67 | 37 | 15.0 | 22.0 | 0.00 | 2.34 | 0.00 | 70 | 1020.4 |
| 20260502151516 | 65 | 9 | 15.0 | 23.0 | 0.00 | 2.79 | 0.00 | 79 | 1020.5 |
| 20260502140106 | 60 | 24 | 15.0 | 19.0 | 0.00 | 2.80 | 0.00 | 87 | 1020.0 |
| 20260502123041 | 54 | 32 | 15.0 | 22.0 | 0.00 | 2.88 | 0.00 | 91 | 1018.7 |
| 20260502121540 | 54 | 19 | 17.0 | 22.0 | 0.00 | 2.88 | 0.00 | 91 | 1018.5 |
| 20260502114536 | 53 | 326 | 17.0 | 22.0 | 0.00 | 2.88 | 0.00 | 91 | 1018.2 |
| 20260502113035 | 53 | 13 | 13.0 | 20.0 | 0.00 | 2.88 | 0.00 | 91 | 1017.8 |
| 20260502111531 | 53 | 54 | 14.0 | 18.0 | 0.00 | 2.88 | 0.00 | 90 | 1017.7 |
| 20260502110029 | 53 | 30 | 13.0 | 19.0 | 0.00 | 2.88 | 0.00 | 90 | 1017.3 |
| 20260502104526 | 53 | 29 | 13.0 | 17.0 | 0.00 | 2.88 | 0.00 | 90 | 1017.0 |
| 20260502103025 | 54 | 42 | 15.0 | 20.0 | 0.00 | 2.88 | 0.00 | 90 | 1016.7 |
| 20260502101524 | 54 | 59 | 15.0 | 23.0 | 0.00 | 2.88 | 0.00 | 90 | 1016.4 |
| 20260502091515 | 54 | 46 | 15.0 | 26.0 | 0.00 | 2.88 | 0.00 | 92 | 1015.6 |
| 20260502071508 | 55 | 39 | 17.0 | 26.0 | 0.00 | 2.88 | 0.00 | 92 | 1015.1 |
| 20260502070008 | 55 | 40 | 16.0 | 27.0 | 0.00 | 2.88 | 0.00 | 92 | 1015.2 |
| 20260502064515 | 55 | 17 | 19.0 | 27.0 | 0.00 | 2.88 | 0.00 | 93 | 1015.2 |
| 20260502063005 | 55 | 32 | 19.0 | 30.0 | 0.00 | 2.88 | 0.00 | 93 | 1015.2 |
| 20260502061503 | 55 | 5 | 21.0 | 33.0 | 0.00 | 2.88 | 0.00 | 93 | 1015.1 |
| 20260502054600 | 56 | 35 | 23.0 | 30.0 | 0.00 | 2.88 | 0.00 | 93 | 1015.3 |
| 20260502053055 | 56 | 32 | 19.0 | 27.0 | 0.00 | 2.88 | 0.00 | 94 | 1015.6 |
| 20260502051553 | 56 | 32 | 19.0 | 25.0 | 0.00 | 2.88 | 0.00 | 94 | 1015.9 |
| 20260502050051 | 56 | 23 | 19.0 | 25.0 | 0.01 | 2.88 | 0.00 | 94 | 1015.8 |
| 20260502044549 | 56 | 9 | 17.0 | 23.0 | 0.03 | 2.88 | 2.88 | 94 | 1015.7 |
| 20260502043050 | 56 | 34 | 17.0 | 24.0 | 0.06 | 2.88 | 2.88 | 94 | 1015.4 |
| 20260502041545 | 57 | 24 | 14.0 | 23.0 | 0.06 | 2.88 | 2.88 | 94 | 1015.3 |
| 20260502040054 | 57 | 44 | 17.0 | 24.0 | 0.05 | 2.87 | 2.87 | 94 | 1014.6 |
| 20260502034542 | 57 | 49 | 15.0 | 25.0 | 0.04 | 2.85 | 2.85 | 94 | 1014.7 |
| 20260502033042 | 57 | 5 | 20.0 | 26.0 | 0.02 | 2.82 | 2.82 | 94 | 1014.6 |
| 20260502031546 | 57 | 325 | 18.0 | 25.0 | 0.05 | 2.82 | 2.82 | 94 | 1014.7 |
| 20260502030036 | 58 | 24 | 17.0 | 24.0 | 0.11 | 2.82 | 2.82 | 94 | 1014.4 |
| 20260502024532 | 59 | 315 | 17.0 | 25.0 | 0.11 | 2.81 | 2.81 | 94 | 1014.0 |
| 20260502023037 | 59 | 5 | 16.0 | 21.0 | 0.15 | 2.80 | 2.80 | 94 | 1013.6 |
| 20260502021531 | 59 | 20 | 15.0 | 23.0 | 0.15 | 2.77 | 2.77 | 94 | 1013.6 |
| 20260502020031 | 59 | 44 | 15.0 | 22.0 | 0.11 | 2.71 | 2.71 | 94 | 1012.9 |
| 20260502014542 | 59 | 53 | 15.0 | 24.0 | 0.11 | 2.70 | 2.70 | 94 | 1012.3 |
| 20260502013028 | 59 | 25 | 14.0 | 21.0 | 0.06 | 2.65 | 2.65 | 94 | 1012.5 |
| 20260502011528 | 59 | 22 | 17.0 | 27.0 | 0.04 | 2.62 | 2.62 | 94 | 1011.9 |
| 20260502010032 | 60 | 17 | 19.0 | 30.0 | 0.02 | 2.60 | 2.60 | 94 | 1011.0 |
| 20260502004524 | 60 | 13 | 22.0 | 30.0 | 0.01 | 2.59 | 2.59 | 94 | 1011.0 |
| 20260502003022 | 60 | 19 | 22.0 | 30.0 | 0.01 | 2.59 | 2.59 | 94 | 1010.4 |
| 20260502001530 | 61 | 15 | 17.0 | 26.0 | 0.00 | 2.58 | 2.58 | 94 | 1011.1 |
| 20260502000019 | 61 | 39 | 19.0 | 28.0 | 0.00 | 2.58 | 2.58 | 94 | 1010.4 |
| 20260501234518 | 61 | 58 | 20.0 | 28.0 | 0.00 | 2.58 | 2.58 | 94 | 1009.6 |
| 20260501233017 | 61 | 14 | 20.0 | 29.0 | 0.00 | 2.58 | 2.58 | 94 | 1010.2 |
| 20260501231517 | 62 | 36 | 24.0 | 33.0 | 0.03 | 2.58 | 2.58 | 94 | 1009.9 |
| 20260501230016 | 62 | 53 | 19.0 | 27.0 | 0.06 | 2.58 | 2.58 | 94 | 1010.6 |
| 20260501224517 | 61 | 40 | 19.0 | 32.0 | 0.10 | 2.58 | 2.58 | 94 | 1010.6 |
| 20260501223018 | 61 | 44 | 22.0 | 31.0 | 0.23 | 2.58 | 2.58 | 94 | 1010.3 |
| 20260501221513 | 62 | 49 | 25.0 | 37.0 | 0.35 | 2.54 | 2.54 | 95 | 1009.2 |
| 20260501220011 | 62 | 63 | 18.0 | 26.0 | 0.39 | 2.52 | 2.52 | 95 | 1010.4 |
| 20260501214509 | 62 | 42 | 15.0 | 23.0 | 0.45 | 2.48 | 2.48 | 94 | 1011.6 |
| 20260501213009 | 62 | 48 | 20.0 | 29.0 | 0.54 | 2.29 | 2.29 | 94 | 1010.1 |
| 20260501211509 | 62 | 42 | 9.0 | 21.0 | 0.44 | 2.19 | 2.19 | 94 | 1011.2 |
| 20260501210019 | 62 | 67 | 14.0 | 22.0 | 0.46 | 2.12 | 2.12 | 94 | 1009.7 |
| 20260501204508 | 62 | 28 | 17.0 | 28.0 | 0.41 | 2.00 | 2.00 | 94 | 1009.8 |
| 20260501203006 | 62 | 27 | 17.0 | 38.0 | 0.21 | 1.76 | 1.76 | 94 | 1010.9 |
| 20260501201505 | 62 | 69 | 21.0 | 29.0 | 0.22 | 1.75 | 1.75 | 94 | 1008.2 |
| 20260501200004 | 62 | 48 | 11.0 | 20.0 | 0.17 | 1.65 | 1.65 | 94 | 1010.7 |
| 20260501194503 | 62 | 59 | 20.0 | 27.0 | 0.24 | 1.59 | 1.59 | 94 | 1009.3 |
| 20260501193001 | 62 | 53 | 15.0 | 25.0 | 0.19 | 1.54 | 1.54 | 94 | 1010.1 |
| 20260501191501 | 62 | 61 | 18.0 | 31.0 | 0.19 | 1.53 | 1.53 | 94 | 1009.9 |
| 20260501190000 | 63 | 55 | 18.0 | 25.0 | 0.15 | 1.47 | 1.47 | 94 | 1009.9 |
| 20260501184601 | 62 | 72 | 16.0 | 24.0 | 0.24 | 1.35 | 1.35 | 94 | 1010.6 |
| 20260501183100 | 62 | 57 | 17.0 | 27.0 | 0.60 | 1.35 | 1.35 | 94 | 1010.3 |
| 20260501181600 | 62 | 52 | 17.0 | 25.0 | 0.59 | 1.34 | 1.34 | 94 | 1010.3 |